This is the latest recevied weather packets stored in our database for station/object DG7FDL-7. If no packets are shown the sender has not sent any weather packets the latest 10 day(s).
| Time | Temp. | Humidity | Pressure | Rain* | Wind** | Luminosity | Snow |
|---|---|---|---|---|---|---|---|
| 1777503868 | 18.89° C | 31% | 1030.2 hPa | - | - | - | - |
| 1777502968 | 18.89° C | 31% | 1030.1 hPa | - | - | - | - |
| 1777502068 | 18.89° C | 31% | 1030.1 hPa | - | - | - | - |
| 1777501188 | 19.44° C | 31% | 1029.9 hPa | - | - | - | - |
| 1777500268 | 19.44° C | 31% | 1029.6 hPa | - | - | - | - |
| 1777499367 | 20° C | 31% | 1029.6 hPa | - | - | - | - |
| 1777498469 | 20° C | 31% | 1029.4 hPa | - | - | - | - |
| 1777497569 | 20° C | 32% | 1029.3 hPa | - | - | - | - |
| 1777496667 | 20.56° C | 33% | 1029.3 hPa | - | - | - | - |
| 1777495767 | 22.22° C | 34% | 1029.3 hPa | - | - | - | - |
| 1777494867 | 22.22° C | 34% | 1029.3 hPa | - | - | - | - |
| 1777493972 | 22.78° C | 33% | 1029.2 hPa | - | - | - | - |
| 1777493067 | 22.22° C | 34% | 1029.2 hPa | - | - | - | - |
| 1777492167 | 22.78° C | 33% | 1029 hPa | - | - | - | - |
| 1777491267 | 21.67° C | 34% | 1028.7 hPa | - | - | - | - |
| 1777490369 | 22.22° C | 33% | 1028.7 hPa | - | - | - | - |
| 1777489467 | 22.78° C | 33% | 1028.3 hPa | - | - | - | - |
| 1777488567 | 21.67° C | 33% | 1028.2 hPa | - | - | - | - |
| 1777487667 | 21.67° C | 33% | 1028 hPa | - | - | - | - |
| 1777486778 | 22.22° C | 32% | 1027.9 hPa | - | - | - | - |
| 1777485867 | 21.67° C | 33% | 1027.6 hPa | - | - | - | - |
| 1777484969 | 21.67° C | 32% | 1027.7 hPa | - | - | - | - |
| 1777484067 | 22.22° C | 32% | 1027.7 hPa | - | - | - | - |
| 1777483178 | 21.67° C | 32% | 1027.5 hPa | - | - | - | - |
| 1777482267 | 21.67° C | 31% | 1027.5 hPa | - | - | - | - |
* Rain since midnight (hover to see other rain measurements)
** Current wind speed in m/s (hover to see current wind gust speed)